OpenBCM V1.07b12 (Linux)

Packet Radio Mailbox

DB0FHN

[JN59NK Nuernberg]

 Login: GUEST





  
I6KZR  > KEPLER   01.02.03 15:55l 320 Lines 15900 Bytes #999 (0) @ WW
BID : 21440_IK6WID
Read: DB0FHN GUEST
Subj: 2L Keplerian Elements #032
Path: DB0FHN<DB0ZWI<DB0HOT<DB0MRW<OK0PPL<RZ6HXA<SP7MGD<IK6PYS<IW6CBN<I6ZLO<
      IK6WID
Sent: 030201/1325Z @:IK6WID.#AP.IMAR.ITA.EU #:21440 [MONTE URANO]  FBB7.00i
From: I6KZR@IK6WID.#AP.IMAR.ITA.EU
To  : KEPLER@WW


OSCAR 7
1 07530U 74089B   03032.13423197 -.00000029  00000-0  10000-3 0  1461
2 07530 101.7643  80.0832 0012239 111.3421 248.8957 12.53564074291002
GOES 2
1 10061U 77048A   03028.56527598  .00000000  00000-0  10000-3 0   708
2 10061  14.1264  13.5931 0013180 196.1337 163.8523  0.99391768 38622
GOES 3
1 10953U 78062A   03030.98713298 -.00000106  00000-0  00000+0 0  9092
2 10953  13.4014  17.3732 0005252 340.3136  19.7011  1.00278645 43313
GOES 6
1 14050U 83041A   03028.11159657 +.00000042 +00000-0 +10000-3 0 04179
2 14050 010.3721 035.6208 0003104 350.7939 009.2480 01.00296104130420
OSCAR 10
1 14129U 83058B   03022.69371816  .00000229  00000-0  10000-3 0  9121
2 14129  25.8918 168.7550 6038640 321.4060   7.9531  2.05867100119518
OSCAR 11 (UoSAT 2)
1 14781U 84021B   03031.53500548  .00001239  00000-0  17926-3 0   582
2 14781  98.1145   5.3241 0008154 270.3558  89.6716 14.77937947 13575
NOAA 10
1 16969U 86073A   03031.87966548  .00000131  00000-0  72003-4 0  6476
2 16969  98.7276  26.0283 0012926 135.1869 225.0357 14.27056324851389
GOES 7
1 17561U 87022A   03013.52827387  .00000116  00000-0  10000-3 0  8102
2 17561   7.5470  55.7264 0004064 288.6625 149.4031  1.00317770 41389
COSMOS 1861
1 18129U 87054A   03031.43396828  .00000072  00000-0  62694-4 0  1964
2 18129  82.9257 159.9653 0010311 280.7720  79.2273 13.72699122782027
EUTELSAT 1-F4 (ECS 4)
1 18351U 87078B   03030.70479149 -.00000042  00000-0  00000+0 0   318
2 18351   7.1591  58.7264 0007660 210.3813 149.6320  0.98688078 42490
NOAA 11
1 19531U 88089A   03031.89892801  .00000194  00000-0  12440-3 0  4852
2 19531  98.9043 113.3389 0010922 252.1289 107.8691 14.14529102740300
ASTRA 1A
1 19688U 88109B   03029.75771711  .00000026  00000-0  10000-3 0  5660
2 19688   1.3459  94.9986 0004915 207.7171 103.8285  1.00273261 31996
OSCAR 14 (UOSAT 3)
1 20437U 90005B   03031.18228598  .00000108  00000-0  56253-4 0  1547
2 20437  98.2749  75.6719 0009862 257.9827 102.0251 14.31231244679869
OSCAR 15 (UOSAT 4)
1 20438U 90005C   03031.53832508  .00000074  00000-0  44493-4 0  7696
2 20438  98.2513  65.2130 0009041 269.4481  90.5674 14.30192639679586
OSCAR 16 (PACSAT)
1 20439U 90005D   03031.68949433  .00000123  00000-0  61897-4 0  8456
2 20439  98.3209  87.7344 0010099 262.8197  97.1848 14.31463947679975
OSCAR 17 (DOVE)
1 20440U 90005E   03029.72509271 +.00000183 +00000-0 +84027-4 0 07288
2 20440 098.3393 089.6988 0010462 270.0069 089.9920 14.31740944679761
OSCAR 18 (WEBERSAT)
1 20441U 90005F   03031.88099978  .00000113  00000-0  58111-4 0    19
2 20441  98.3388  90.9931 0010796 261.3849  98.6110 14.31545959680059
OSCAR 19 (LUSAT)
1 20442U 90005G   03031.23245576  .00000122  00000-0  61262-4 0  9522
2 20442  98.3526  93.3622 0011105 264.0548  95.9368 14.31708513680017
JAS 1B (FUJI 2)
1 20480U 90013C   03031.84956224  .00000016  00000-0  10455-3 0  4590
2 20480  99.0443 357.9286 0540928  43.9732 320.3131 12.83329264608244
HST
1 20580U 90037B   03031.69923885  .00002494  00000-0  19427-3 0  3147
2 20580  28.4655 154.1509 0004392  79.5122  12.2132 14.97738524499953
EUTELSAT 2-F1
1 20777U 90079B   03030.68024898 -.00000110  00000-0  10000-3 0   234
2 20777   3.4545  84.7257 0000759 290.8967  74.7691  1.00270725 25916
FENGYUN 1B
1 20788U 90081A   03032.19350467 -.00000151  00000-0 -69672-4 0  8718
2 20788  99.0257  14.5474 0015102 280.0078  79.9383 14.02136830635100
EUTELSAT 2-F2
1 21056U 91003B   03028.05627895  .00000116  00000-0  10000-3 0  6137
2 21056   2.6793  88.1781 0003016 259.4382 207.9268  1.00269467 31664
INFORMATOR 1
1 21087U 91006A   03031.87496669  .00000072  00000-0  60106-4 0  5954
2 21087  82.9440 330.5081 0034265 302.1982  57.5849 13.74924548602454
COSMOS 2123
1 21089U 91007A   03029.95755780 +.00000070 +00000-0 +58439-4 0 04947
2 21089 082.9213 195.9229 0029641 344.0752 015.9468 13.74402124601098
ASTRA 1B
1 21139U 91015A   03023.00000000  .00000124  00000-0  10000-3 0  1588
2 21139   0.0122 319.8851 0002995  65.1991 116.0459  1.00273184 31921
METEOSAT 5 (MOP 2)
1 21140U 91015B   03030.86842619  .00000009  00000-0  10000-3 0  6994
2 21140   5.5886  70.0779 0002689 145.8566 289.1893  1.00269534 45865
NOAA 12
1 21263U 91032A   03031.86057095  .00000286  00000-0  14059-3 0  9523
2 21263  98.6239  21.7904 0013771  73.5968 286.6724 14.25067673608698
OSCAR 22 (UoSAT 5)
1 21575U 91050B   03031.57006708  .00000270  00000-0  10050-3 0  7148
2 21575  98.1391  24.6016 0007150 180.5626 179.5555 14.39140688605690
METEOR 3-5
1 21655U 91056A   03030.52938398  .00000051  00000-0  10000-3 0  4954
2 21655  82.5538  52.3158 0012380 244.5587 115.4252 13.16980338550973
UARS
1 21701U 91063B   03031.40320618  .00000722  00000-0  72366-4 0  8135
2 21701  56.9812 105.5749 0005225 115.3874 244.7642 15.02819040622984
EUTELSAT 2-F3
1 21803U 91083A   03029.89775103  .00000118  00000-0  10000-3 0  5135
2 21803   2.5498  89.3592 0002612 252.7497 131.1944  1.00270622 36807
INMARSAT 2-F3
1 21814U 91084B   03030.57665984  .00000102  00000-0  10000-3 0  6077
2 21814   1.7075  57.7217 0002918 251.8388 245.3805  1.00270752 40704
INMARSAT 2-F4
1 21940U 92021B   03031.69489394 -.00000363  00000-0  10000-3 0  5677
2 21940   2.3651  19.1621 0001499 302.0485 168.4151  1.00268330 39506
EUTELSAT 2-F4
1 22028U 92041B   03028.97057872 -.00000106  00000-0  10000-3 0  3242
2 22028   1.6660  92.8484 0005860 216.6759 155.3765  1.00272003 31578
OSCAR 23 (KITSAT 1)
1 22077U 92052B   03031.84208514 -.00000037  00000-0  10000-3 0  1510
2 22077  66.0801 162.8477 0015346 278.7045  81.2235 12.86407897492028
ASTRA 1C
1 22653U 93031A   03023.00000000  .00000123  00000-0  10000-3 0  7844
2 22653   0.0122 319.8851 0002995  65.1991 116.0096  1.00273184 30626
METEOR 2-21
1 22782U 93055A   03031.09315676  .00000067  00000-0  47384-4 0  5053
2 22782  82.5447 229.5481 0023288  40.4542 319.8378 13.83530710475530
KITSAT B
1 22825U 93061C   03031.54676481  .00000121  00000-0  64240-4 0  4759
2 22825  98.2761  62.1606 0007885 318.6909  41.3679 14.28936132487300
POSAT 1
1 22826U 93061D   03029.61952556 +.00000138 +00000-0 +70523-4 0 03001
2 22826 098.2776 061.4369 0008947 324.3473 035.7107 14.29157970487078
ITAMSAT
1 22828U 93061F   03032.12442756  .00000089  00000-0  50802-4 0  4159
2 22828  98.2740  64.0814 0009448 294.2896  65.7295 14.29501630455630
EYESAT A
1 22829U 93061G   03031.15702289  .00000162  00000-0  78990-4 0  4387
2 22829  98.2761  63.7587 0009217 297.3296  62.6943 14.29757886487423
METEOSAT 6
1 22912U 93073B   03028.96775464  .00000055  00000-0  00000+0 0  6568
2 22912   2.6273  82.4994 0001001 238.1902 164.8967  1.00276372 32094
GOES 8
1 23051U 94022A   03029.38353817 -.00000256  00000-0  00000+0 0  5821
2 23051   0.2495 103.9133 0000388  39.9065  47.0468  1.00282739 39603
ASTRA 1D
1 23331U 94070A   03028.98532409  .00000134  00000-0  00000+0 0  8070
2 23331   0.0547 228.2939 0004597  15.5542 262.8429  1.00270973 30669
RADIO ROSTO
1 23439U 94085A   03029.24918450 -.00000042 +00000-0 +14747-4 0 06849
2 23439 064.8160 074.3419 0147359 119.1840 242.3917 11.27547749333306
NOAA 14
1 23455U 94089A   03031.84600858  .00000124  00000-0  90969-4 0  5074
2 23455  99.1875  49.9474 0008632 280.8489  79.1710 14.13290170416975
HIMAWARI 5 (GMS 5)
1 23522U 95011B   03030.18453899 -.00000293  00000-0  00000+0 0   774
2 23522   1.7234  83.6295 0000323  46.4388 205.3212  1.00263904 28692
HOT BIRD 1
1 23537U 95016B   03013.80550721  .00000107  00000-0  10000-3 0  5332
2 23537   0.0070 236.2796 0008090  86.9786  92.5958  1.00275871 28611
GOES 9
1 23581U 95025A   03031.49884696  .00000115  00000-0  00000+0 0  4981
2 23581   0.3154 277.7072 0012790 253.4411 356.2791  1.00049027 28180
INMARSAT 3-F1
1 23839U 96020A   03030.84841383  .00000007  00000-0  00000+0 0  8598
2 23839   0.0663 334.5996 0003403 327.7436 196.6295  1.00270064 25020
ASTRA 1F
1 23842U 96021A   03023.00000000  .00000124  00000-0  10000-3 0  5576
2 23842   0.0122 319.8851 0002995  65.1991 116.0362  1.00273184 24851
JAS 2
1 24278U 96046B   03029.94283167 -.00000009 +00000-0 +29599-4 0 05671
2 24278 098.5329 183.8297 0349995 267.4507 088.6526 13.52870113318658
UNAMSAT
1 24305U 96052B   03030.18270153  .00000205  00000-0  20364-3 0  6586
2 24305  82.9358 277.1206 0028666 258.4363 101.3563 13.73449538320826
INMARSAT 3-F2
1 24307U 96053A   03028.98107061 -.00000129  00000-0  00000+0 0   784
2 24307   0.0655  15.7782 0004502 290.9367 158.7309  1.00270738 23412
HOT BIRD 2
1 24665U 96067A   03022.98977813  .00000000  00000-0  10000-3 0  3404
2 24665   0.0347 162.8644 0004202 151.1719 177.1880  1.00271548 22995
INMARSAT 3-F3
1 24674U 96070A   03030.49359037  .00000031  00000-0  10000-3 0  9797
2 24674   0.0368 316.8146 0004318 340.8464 187.4180  1.00273299 22394
GOES 10
1 24786U 97019A   03030.75158067  .00000075  00000-0  00000+0 0  5254
2 24786   0.0919 107.3747 0003109 217.7654 300.4458  1.00285790 21146
INMARSAT 3-F4
1 24819U 97027A   03031.22607970 -.00000296  00000-0  10000-3 0  8732
2 24819   0.0301 296.7270 0004064  25.5465 195.0875  1.00267703 20827
FENGYUN 2A
1 24834U 97029A   03031.74743807 -.00000200  00000-0  00000+0 0  9515
2 24834   2.5284  88.6518 0002886 265.2553 131.2777  1.00260694 20662
HOT BIRD 3
1 24931U 97049A   03023.22766377  .00000000  00000-0  10000-3 0  4210
2 24931   0.0604 227.5595 0010036  81.3762 268.1866  1.00274291 19804
METEOSAT 7
1 24932U 97049B   03029.08980325 -.00000009  00000-0  00000+0 0  2406
2 24932   0.1718  58.2503 0000821 266.4382 195.6196  1.00275192 19817
